Home   Weather   Carouge   Past weeks

Flag for Switzerland Past Weather in Carouge, Geneva, Switzerland — Yesterday and Last 2 Weeks

Now
32 °F

Fog.


Feels Like: 32 °F
Forecast: 30 / 55 °F
Wind: 2 mph from West

Location: Geneve-Cointrin

Current Time: Dec 9, 2016 at 4:49:21 pm

Latest Report: Dec 9, 2016 at 4:00 pm


Visibility: 1 mi

Pressure: 30.58 "Hg

Humidity: 100%

Dew Point: 32 °F

Location of CarougeLocation

Past Weather in Carouge — Graph

°F

Carouge Temperature Yesterday

Maximum temperature yesterday: 34 °F (at 12:00 pm)
Minimum temperature yesterday: 30 °F (at 11:00 pm)
Average temperature yesterday: 32 °F

High & Low Weather Summary for the Past Weeks

 TemperatureHumidityPressure
High49 °F (Nov 24, 3:00 pm)100% (Nov 30, 6:00 am)30.72 "Hg (Nov 30, 6:00 am)
Low25 °F (Dec 2, 8:00 am)40% (Nov 30, 9:00 am)29.82 "Hg (Nov 25, 4:00 am)
Average36 °F81%30.32 "Hg
* Reported Nov 24 3:00 pm — Dec 9 3:00 pm, Carouge, Weather by CustomWeather, © 2016

Note: Actual official high and low records may vary slightly from our data, if they occured in-between our weather recording intervals... More about our weather records

Advertising

Carouge Weather History for the Previous 24 Hours

Scroll right to see more
 ConditionsComfort  
Time TempWeatherWind HumidityBarometerVisibility
3:00 pm
Fri, Dec 9
32 °FChilly.2 mph100%30.58 "HgN/A
2:00 pm32 °FChilly.2 mph100%30.60 "HgN/A
1:00 pm31 °FFog.2 mph100%30.61 "Hg1 mi
12:00 pm30 °FChilly.2 mph100%30.63 "HgN/A
11:00 am30 °FChilly.3 mph100%30.65 "HgN/A
10:00 am30 °FFog.1 mph100%30.65 "Hg1 mi
9:00 am30 °FChilly.1 mph100%30.65 "HgN/A
8:00 am29 °FChilly.2 mph100%30.64 "HgN/A
7:00 am29 °FFog.2 mph100%30.64 "Hg0 mi
6:00 am30 °FChilly.3 mph100%30.63 "HgN/A
5:00 am31 °FChilly.2 mph100%30.64 "HgN/A
4:00 am31 °FChilly.1 mph100%30.64 "HgN/A
3:00 am31 °FChilly.2 mph100%30.64 "HgN/A
2:00 am30 °FChilly.2 mph100%30.64 "HgN/A
1:00 am29 °FChilly.3 mph100%30.66 "HgN/A
12:00 am29 °FChilly.2 mph100%30.66 "HgN/A
11:00 pm
Thu, Dec 8
30 °FChilly.2 mph100%30.66 "HgN/A
10:00 pm30 °FFog.1 mph100%30.66 "Hg0 mi
9:00 pm30 °FChilly.3 mph100%30.66 "HgN/A
8:00 pm31 °FChilly.2 mph100%30.66 "HgN/A
7:00 pm31 °FFog.3 mph100%30.65 "Hg1 mi
6:00 pm31 °FChilly.3 mph100%30.64 "HgN/A
5:00 pm32 °FChilly.3 mph97%30.64 "HgN/A
4:00 pm33 °FFog.2 mph92%30.62 "Hg2 mi
Weather by CustomWeather, © 2016

See weather overviewHow to use our weather pages